Time,TemperatureF,DewpointF,PressureIn,WindDirection,WindDirectionDegrees,WindSpeedMPH,WindSpeedGustMPH,Humidity,HourlyPrecipIn,Conditions,Clouds,dailyrainin,SoftwareType,DateUTC
2013-02-05 00:02:00,47.6,46.0,30.11,ENE,66,0.0,1.0,95,0.00,,,0.01,weatherlink.com 1.10,2013-02-05 08:02:00,
2013-02-05 00:17:00,47.6,47.0,30.11,ENE,66,1.0,4.0,96,0.00,,,0.01,weatherlink.com 1.10,2013-02-05 08:17:00,
2013-02-05 00:32:00,47.5,47.0,30.11,East,91,3.0,3.0,96,0.00,,,0.00,weatherlink.com 1.10,2013-02-05 08:32:00,
2013-02-05 00:47:00,47.5,46.0,30.11,East,90,0.0,3.0,95,0.00,,,0.00,weatherlink.com 1.10,2013-02-05 08:47:00,
2013-02-05 01:02:00,47.5,47.0,30.11,East,90,3.0,3.0,96,0.00,,,0.00,weatherlink.com 1.10,2013-02-05 09:02:00,
2013-02-05 01:17:00,47.4,46.0,30.11,ENE,66,1.0,1.0,95,0.00,,,0.00,weatherlink.com 1.10,2013-02-05 09:17:00,
2013-02-05 01:32:00,47.3,46.0,30.11,ENE,76,0.0,3.0,95,0.00,,,0.00,weatherlink.com 1.10,2013-02-05 09:32:00,
2013-02-05 01:47:00,47.2,46.0,30.11,ENE,66,0.0,2.0,96,0.00,,,0.00,weatherlink.com 1.10,2013-02-05 09:47:00,
2013-02-05 02:02:00,47.1,46.0,30.10,ENE,66,0.0,1.0,95,0.00,,,0.00,weatherlink.com 1.10,2013-02-05 10:02:00,
2013-02-05 02:17:00,46.9,46.0,30.10,East,87,1.0,2.0,95,0.00,,,0.00,weatherlink.com 1.10,2013-02-05 10:17:00,
2013-02-05 02:32:00,46.9,46.0,30.10,East,86,0.0,0.0,95,0.00,,,0.00,weatherlink.com 1.10,2013-02-05 10:32:00,
2013-02-05 02:47:00,46.8,45.0,30.10,ENE,72,0.0,1.0,94,0.00,,,0.00,weatherlink.com 1.10,2013-02-05 10:47:00,
2013-02-05 03:02:00,46.8,45.0,30.10,East,86,0.0,0.0,94,0.00,,,0.00,weatherlink.com 1.10,2013-02-05 11:02:00,
2013-02-05 03:17:00,46.6,45.0,30.10,ENE,60,0.0,2.0,94,0.00,,,0.00,weatherlink.com 1.10,2013-02-05 11:17:00,
2013-02-05 03:32:00,46.6,45.0,30.10,East,79,0.0,3.0,94,0.00,,,0.00,weatherlink.com 1.10,2013-02-05 11:32:00,
2013-02-05 03:47:00,46.5,45.0,30.10,East,100,0.0,2.0,93,0.00,,,0.00,weatherlink.com 1.10,2013-02-05 11:47:00,
2013-02-05 04:02:00,46.5,45.0,30.10,ENE,68,0.0,2.0,93,0.00,,,0.00,weatherlink.com 1.10,2013-02-05 12:02:00,
2013-02-05 04:17:00,46.5,45.0,30.10,East,82,0.0,2.0,93,0.00,,,0.00,weatherlink.com 1.10,2013-02-05 12:17:00,
2013-02-05 04:32:00,46.5,45.0,30.10,ENE,75,0.0,1.0,94,0.00,,,0.00,weatherlink.com 1.10,2013-02-05 12:32:00,
2013-02-05 04:47:00,46.3,45.0,30.09,East,79,0.0,1.0,94,0.00,,,0.00,weatherlink.com 1.10,2013-02-05 12:47:00,
2013-02-05 05:02:00,46.3,45.0,30.09,ENE,63,1.0,1.0,94,0.00,,,0.00,weatherlink.com 1.10,2013-02-05 13:02:00,
2013-02-05 05:17:00,46.3,45.0,30.09,East,80,0.0,2.0,94,0.00,,,0.00,weatherlink.com 1.10,2013-02-05 13:17:00,
2013-02-05 05:32:00,46.2,44.0,30.08,East,93,2.0,2.0,93,0.00,,,0.00,weatherlink.com 1.10,2013-02-05 13:32:00,
2013-02-05 05:47:00,46.2,44.0,30.08,ENE,64,0.0,2.0,92,0.00,,,0.00,weatherlink.com 1.10,2013-02-05 13:47:00,
2013-02-05 06:03:00,46.3,44.0,30.09,ENE,64,0.0,0.0,92,0.00,,,0.00,weatherlink.com 1.10,2013-02-05 14:03:00,
2013-02-05 06:18:00,46.4,45.0,30.08,East,87,0.0,2.0,93,0.00,,,0.00,weatherlink.com 1.10,2013-02-05 14:18:00,
2013-02-05 06:33:00,46.3,44.0,30.09,East,99,2.0,2.0,93,0.00,,,0.00,weatherlink.com 1.10,2013-02-05 14:33:00,
2013-02-05 06:48:00,46.2,44.0,30.09,East,88,1.0,2.0,93,0.00,,,0.00,weatherlink.com 1.10,2013-02-05 14:48:00,
2013-02-05 07:03:00,46.1,44.0,30.09,ENE,69,0.0,1.0,93,0.00,,,0.00,weatherlink.com 1.10,2013-02-05 15:03:00,
2013-02-05 07:18:00,46.1,44.0,30.10,ENE,66,0.0,3.0,93,0.00,,,0.00,weatherlink.com 1.10,2013-02-05 15:18:00,
2013-02-05 07:33:00,46.2,44.0,30.10,NE,52,0.0,4.0,93,0.00,,,0.00,weatherlink.com 1.10,2013-02-05 15:33:00,
2013-02-05 07:48:00,46.1,44.0,30.11,East,101,2.0,5.0,93,0.00,,,0.00,weatherlink.com 1.10,2013-02-05 15:48:00,
2013-02-05 08:03:00,45.9,44.0,30.12,East,91,0.0,2.0,92,0.00,,,0.00,weatherlink.com 1.10,2013-02-05 16:03:00,
2013-02-05 08:18:00,45.9,44.0,30.13,SSE,153,0.0,4.0,91,0.00,,,0.00,weatherlink.com 1.10,2013-02-05 16:18:00,
2013-02-05 08:33:00,45.8,43.0,30.13,SE,128,4.0,4.0,90,0.00,,,0.00,weatherlink.com 1.10,2013-02-05 16:33:00,
2013-02-05 08:48:00,45.8,43.0,30.13,East,91,1.0,6.0,89,0.00,,,0.00,weatherlink.com 1.10,2013-02-05 16:48:00,
2013-02-05 09:03:00,46.1,43.0,30.14,East,87,2.0,3.0,89,0.00,,,0.00,weatherlink.com 1.10,2013-02-05 17:03:00,
2013-02-05 09:18:00,46.4,43.0,30.14,East,97,1.0,8.0,87,0.00,,,0.00,weatherlink.com 1.10,2013-02-05 17:18:00,
2013-02-05 09:33:00,46.7,43.0,30.14,East,92,3.0,5.0,85,0.00,,,0.00,weatherlink.com 1.10,2013-02-05 17:33:00,
2013-02-05 09:48:00,47.1,43.0,30.14,East,94,1.0,5.0,84,0.00,,,0.00,weatherlink.com 1.10,2013-02-05 17:48:00,
2013-02-05 10:03:00,47.3,42.0,30.14,East,100,2.0,6.0,83,0.00,,,0.00,weatherlink.com 1.10,2013-02-05 18:03:00,
2013-02-05 10:18:00,47.6,43.0,30.14,East,86,0.0,5.0,84,0.00,,,0.00,weatherlink.com 1.10,2013-02-05 18:18:00,
2013-02-05 10:33:00,47.9,42.0,30.14,ENE,60,4.0,6.0,81,0.00,,,0.00,weatherlink.com 1.10,2013-02-05 18:33:00,
2013-02-05 10:48:00,48.1,42.0,30.15,East,80,2.0,5.0,80,0.00,,,0.00,weatherlink.com 1.10,2013-02-05 18:48:00,
2013-02-05 11:03:00,49.6,43.0,30.14,East,91,2.0,4.0,78,0.00,,,0.00,weatherlink.com 1.10,2013-02-05 19:03:00,
2013-02-05 11:18:00,50.7,43.0,30.14,East,80,2.0,5.0,76,0.00,,,0.00,weatherlink.com 1.10,2013-02-05 19:18:00,
2013-02-05 11:33:00,51.2,44.0,30.13,NE,37,1.0,6.0,75,0.00,,,0.00,weatherlink.com 1.10,2013-02-05 19:33:00,
2013-02-05 11:48:00,51.4,43.0,30.13,East,84,2.0,4.0,74,0.00,,,0.00,weatherlink.com 1.10,2013-02-05 19:48:00,
2013-02-05 12:03:00,52.0,44.0,30.12,East,95,1.0,3.0,73,0.00,,,0.00,weatherlink.com 1.10,2013-02-05 20:03:00,
2013-02-05 12:18:00,52.6,45.0,30.11,ENE,77,1.0,4.0,75,0.00,,,0.00,weatherlink.com 1.10,2013-02-05 20:18:00,
2013-02-05 12:33:00,53.2,45.0,30.10,East,91,0.0,2.0,74,0.00,,,0.00,weatherlink.com 1.10,2013-02-05 20:33:00,
2013-02-05 12:48:00,53.0,45.0,30.10,East,99,2.0,4.0,73,0.00,,,0.00,weatherlink.com 1.10,2013-02-05 20:48:00,
2013-02-05 13:03:00,53.1,45.0,30.10,East,94,1.0,4.0,73,0.00,,,0.00,weatherlink.com 1.10,2013-02-05 21:03:00,
2013-02-05 13:18:00,53.2,45.0,30.09,East,91,2.0,6.0,74,0.00,,,0.00,weatherlink.com 1.10,2013-02-05 21:18:00,
2013-02-05 13:33:00,53.7,45.0,30.09,East,84,1.0,5.0,73,0.00,,,0.00,weatherlink.com 1.10,2013-02-05 21:33:00,
2013-02-05 13:48:00,53.7,46.0,30.09,ESE,120,3.0,3.0,74,0.00,,,0.00,weatherlink.com 1.10,2013-02-05 21:48:00,
2013-02-05 14:03:00,53.5,46.0,30.09,East,98,2.0,4.0,76,0.00,,,0.00,weatherlink.com 1.10,2013-02-05 22:03:00,
2013-02-05 14:18:00,53.7,46.0,30.09,ESE,114,2.0,7.0,75,0.00,,,0.00,weatherlink.com 1.10,2013-02-05 22:18:00,
2013-02-05 14:33:00,54.2,47.0,30.09,ESE,103,1.0,4.0,76,0.00,,,0.00,weatherlink.com 1.10,2013-02-05 22:33:00,
2013-02-05 14:49:00,54.7,47.0,30.09,ENE,65,1.0,5.0,74,0.00,,,0.00,weatherlink.com 1.10,2013-02-05 22:49:00,
2013-02-05 15:04:00,55.0,47.0,30.09,ESE,102,2.0,3.0,74,0.00,,,0.00,weatherlink.com 1.10,2013-02-05 23:04:00,
2013-02-05 15:18:00,55.2,47.0,30.09,NE,51,1.0,4.0,73,0.00,,,0.00,weatherlink.com 1.10,2013-02-05 23:18:00,
2013-02-05 15:33:00,55.0,46.0,30.09,ENE,57,0.0,8.0,73,0.00,,,0.00,weatherlink.com 1.10,2013-02-05 23:33:00,
2013-02-05 15:48:00,54.9,47.0,30.10,ENE,65,0.0,6.0,74,0.00,,,0.00,weatherlink.com 1.10,2013-02-05 23:48:00,
2013-02-05 16:03:00,55.0,47.0,30.10,ENE,66,0.0,4.0,75,0.00,,,0.00,weatherlink.com 1.10,2013-02-06 00:03:00,
2013-02-05 16:18:00,54.7,47.0,30.10,NNE,32,0.0,4.0,76,0.00,,,0.00,weatherlink.com 1.10,2013-02-06 00:18:00,
2013-02-05 16:34:00,54.0,47.0,30.10,East,94,1.0,5.0,77,0.00,,,0.00,weatherlink.com 1.10,2013-02-06 00:34:00,
2013-02-05 16:49:00,53.6,47.0,30.11,ENE,68,0.0,6.0,77,0.00,,,0.00,weatherlink.com 1.10,2013-02-06 00:49:00,
2013-02-05 17:04:00,53.5,47.0,30.11,East,93,0.0,1.0,78,0.00,,,0.00,weatherlink.com 1.10,2013-02-06 01:04:00,
2013-02-05 17:19:00,53.2,47.0,30.11,ENE,68,0.0,2.0,80,0.00,,,0.00,weatherlink.com 1.10,2013-02-06 01:19:00,
2013-02-05 17:34:00,53.0,47.0,30.11,ENE,75,0.0,2.0,80,0.00,,,0.00,weatherlink.com 1.10,2013-02-06 01:34:00,
2013-02-05 17:49:00,52.8,46.0,30.10,ENE,73,1.0,1.0,79,0.00,,,0.00,weatherlink.com 1.10,2013-02-06 01:49:00,
2013-02-05 18:04:00,52.7,47.0,30.10,ENE,75,0.0,1.0,80,0.00,,,0.00,weatherlink.com 1.10,2013-02-06 02:04:00,
2013-02-05 18:19:00,52.4,47.0,30.11,East,90,0.0,2.0,81,0.00,,,0.00,weatherlink.com 1.10,2013-02-06 02:19:00,
2013-02-05 18:34:00,52.3,47.0,30.11,East,79,0.0,5.0,81,0.00,,,0.00,weatherlink.com 1.10,2013-02-06 02:34:00,
2013-02-05 18:49:00,52.2,47.0,30.11,East,79,0.0,3.0,82,0.00,,,0.00,weatherlink.com 1.10,2013-02-06 02:49:00,
2013-02-05 19:04:00,52.0,47.0,30.11,ENE,65,0.0,1.0,82,0.00,,,0.00,weatherlink.com 1.10,2013-02-06 03:04:00,
2013-02-05 19:19:00,52.1,47.0,30.12,NE,56,1.0,6.0,82,0.00,,,0.00,weatherlink.com 1.10,2013-02-06 03:19:00,
2013-02-05 19:34:00,52.0,47.0,30.12,ENE,70,0.0,3.0,82,0.00,,,0.00,weatherlink.com 1.10,2013-02-06 03:34:00,
2013-02-05 19:49:00,51.8,47.0,30.12,East,90,2.0,2.0,82,0.00,,,0.00,weatherlink.com 1.10,2013-02-06 03:49:00,
2013-02-05 20:04:00,51.4,46.0,30.12,ENE,62,1.0,1.0,83,0.00,,,0.00,weatherlink.com 1.10,2013-02-06 04:04:00,
2013-02-05 20:19:00,50.7,46.0,30.13,ENE,63,0.0,0.0,84,0.00,,,0.00,weatherlink.com 1.10,2013-02-06 04:19:00,
2013-02-05 20:34:00,49.1,45.0,30.13,ENE,61,0.0,1.0,85,0.00,,,0.00,weatherlink.com 1.10,2013-02-06 04:34:00,
2013-02-05 20:49:00,47.2,44.0,30.13,NNE,29,0.0,0.0,88,0.00,,,0.00,weatherlink.com 1.10,2013-02-06 04:49:00,
2013-02-05 21:04:00,46.2,44.0,30.13,NNE,29,0.0,1.0,90,0.00,,,0.00,weatherlink.com 1.10,2013-02-06 05:04:00,
2013-02-05 21:19:00,46.0,44.0,30.14,NNE,29,0.0,0.0,91,0.00,,,0.00,weatherlink.com 1.10,2013-02-06 05:19:00,
2013-02-05 21:34:00,46.1,44.0,30.15,NNE,29,0.0,0.0,91,0.00,,,0.00,weatherlink.com 1.10,2013-02-06 05:34:00,
2013-02-05 21:49:00,46.0,44.0,30.14,NNE,29,0.0,1.0,92,0.00,,,0.00,weatherlink.com 1.10,2013-02-06 05:49:00,
2013-02-05 22:04:00,46.0,44.0,30.15,ENE,75,0.0,1.0,92,0.00,,,0.00,weatherlink.com 1.10,2013-02-06 06:04:00,
2013-02-05 22:19:00,46.5,45.0,30.15,East,82,0.0,2.0,93,0.00,,,0.00,weatherlink.com 1.10,2013-02-06 06:19:00,
2013-02-05 22:34:00,46.6,44.0,30.16,ENE,78,0.0,3.0,92,0.00,,,0.00,weatherlink.com 1.10,2013-02-06 06:34:00,
2013-02-05 22:49:00,45.5,43.0,30.16,NE,39,0.0,1.0,91,0.00,,,0.00,weatherlink.com 1.10,2013-02-06 06:49:00,
2013-02-05 23:04:00,44.3,42.0,30.16,NNE,31,0.0,2.0,93,0.00,,,0.00,weatherlink.com 1.10,2013-02-06 07:04:00,
2013-02-05 23:19:00,43.6,42.0,30.16,NE,46,1.0,4.0,93,0.00,,,0.00,weatherlink.com 1.10,2013-02-06 07:19:00,
2013-02-05 23:34:00,43.2,41.0,30.17,NE,38,0.0,2.0,93,0.00,,,0.00,weatherlink.com 1.10,2013-02-06 07:34:00,
2013-02-05 23:49:00,42.9,41.0,30.16,ENE,60,0.0,0.0,93,0.00,,,0.00,weatherlink.com 1.10,2013-02-06 07:49:00,